User: anonymous   Login
Location: Unspecified
(0.0000°N, 0.0000°E)
Time: 06:21:37
(UTC+00:00)
Language:

AAUSAT 4 - Orbit

View from above orbital plane
View from above orbital plane
View from above satellite
View from above satellite

Ground track
Ground track

The orbit data is extracted from the following two-line orbital elements,

1 41460U 16025E   18175.73277859  .00002821  00000-0  14807-3 0  9995
2 41460  98.1268 239.3325 0162895 118.8493 242.9193 15.05867871118629
Epoch (UTC): 24 June 2018 17:35:12
Eccentricity: 0.0162895
inclination: 98.1268°
perigee height: 436 km
apogee height: 661 km
right ascension of ascending node: 239.3325°
argument of perigee: 118.8493°
revolutions per day: 15.05867871
mean anomaly at epoch: 242.9193°
orbit number at epoch: 11862

The dashed part of the orbit path shows where the satellite is in the earth's shadow,  

DLR